Regional Weather Roundup
Issued by NWS Portland, ME

Home | Current Version | Previous Version | Text Only | Print | Product List | Glossary On
Versions: 1 2 3 4 5 6 7 8 9 10 11 12 13 14 15 16 17 18 19 20 21 22 23 24 25 26 27 28 29 30 31 32 33 34 35 36 37 38 39 40 41 42 43 44 45 46 47 48 49 50
000
ASUS41 KGYX 250210
RWRGYX
WEATHER ROUNDUP FOR MAINE AND NEW HAMPSHIRE
NATIONAL WEATHER SERVICE GRAY ME
1000 PM EDT WED MAY 24 2017

MEZ002-005-006-010-012-015-018-020-021-024-026-027-029-250300-
MAINE

CITY           SKY/WX    TMP DP  RH WIND       PRES   REMARKS
PORTLAND       CLEAR     54  51  90 S5        29.89R
SANFORD        CLOUDY    50  48  93 CALM      29.89R
BAR HARBOR     CLEAR     52  48  86 SW5       29.88R
WISCASSET      CLEAR     52  49  89 CALM      29.90R
ROCKLAND       CLEAR     47  46  97 CALM      29.89R
FRYEBURG       CLEAR     53  51  93 CALM      29.88R
LEWISTONAUBURN CLEAR     54  51  90 CALM      29.88R
AUGUSTA        CLEAR     57  49  74 S7        29.88R
WATERVILLE     CLEAR     57  50  77 SW5       29.85R
BANGOR         PTCLDY    56  49  77 S6        29.86R
GREENVILLE       N/A     58  45  62 E6        29.85R
MILLINOCKET    PTCLDY    55  52  89 CALM      29.86R
HOULTON        CLEAR     59  47  64 E9        29.85R
PRESQUE ISLE   CLEAR     58  47  66 N6        29.88R
FRENCHVILLE    CLEAR     55  44  66 NE5       29.89R
CARIBOU        CLEAR     59  48  67 NE5       29.87R
$$

NHZ002-005-008-009-011-012-014-250300-
NEW HAMPSHIRE

CITY           SKY/WX    TMP DP  RH WIND       PRES   REMARKS
PORTSMOUTH     MOCLDY    52  49  91 S5        29.87R
ROCHESTER      CLOUDY    55  49  80 CALM      29.87R
NASHUA         CLOUDY    59  50  72 S3        29.88R
MANCHESTER     CLOUDY    60  48  64 SE6       29.86R
CONCORD        PTCLDY    61  51  70 SE7       29.87R
LACONIA        CLEAR     56  53  90 CALM      29.87R
BERLIN         MOCLDY    55  52  89 CALM      29.87R
WHITEFIELD     CLEAR     53  49  86 CALM      29.86R
JAFFREY        CLOUDY    56  51  84 SE3       29.88R
KEENE          CLOUDY    60  51  72 CALM      29.86R
LEBANON        CLOUDY    56  52  86 CALM      29.84R
MT WASHINGTON  PTCLDY    43  37  81 E7          N/A
$$

VTZ005-007-008-250300-
VERMONT

CITY           SKY/WX    TMP DP  RH WIND       PRES   REMARKS
ST JOHNSBURY     N/A     61  53  75 MISG      29.83R
MONTPELIER     MOCLDY    61  50  67 S6        29.88R
BURLINGTON     MOCLDY    67  55  65 E3        29.79R
$$

MAZ007-012-024-CTZ003-RIZ002-NYZ038-NYZ072-250300-
SOUTHERN NEW ENGLAND AND NY

CITY           SKY/WX    TMP DP  RH WIND       PRES   REMARKS
BOSTON         CLOUDY    54  52  93 SE5       29.89R
WORCESTER      CLOUDY    57  47  69 E5        29.88R
NANTUCKET      PTCLDY    52  49  89 NE12      29.84R
PROVIDENCE     CLOUDY    58  51  78 E7        29.87R
HARTFORD       CLOUDY    63  50  62 SE7       29.84R
ALBANY         CLOUDY    67  47  48 SE5       29.80R
NEW YORK CITY  CLOUDY    61  49  64 E14       29.81S
$$

ANZ081-ANZ082-ANZ150-NHZ014-MEZ023>029-250300-
COASTAL MARINE OBSERVATIONS

STATION/POSITION TIME  TEMP    WIND        PRES    WAVE
                       AIR SEA DIR/SP/G            HT/PER
                 (UTC) (F)     (DEG/KT/KT) (MB)    (FT/S)
MOUNT DESERT ROC 0200   49                 1012.0R
ISLE OF SHOALS   0100   55     150/  6/  6 1010.8R
JEFFREYS LEDGE   0106      51                N/A     3/ 8
CASHES LEDGE BUO 0050   50 51              1010.8    3/ 7
GEORGES BANK BUO 0050   49 46              1008.0    6/10
$$

.............KEY..............
   WCI - WIND CHILL
   TC  - TEMPERATURE IN CELSIUS
   VSB - VISIBILITY IN MILES
   HX  - HEAT INDEX
   FAIR- INDICATES FEW OR NO CLOUDS BELOW 12,000 FT, WITH NO
         SIGNIFICANT WEATHER AND/OR OBSTRUCTIONS TO VISIBILITY.





USA.gov is the U.S. government's official web portal to all federal, state and local government web resources and services.